When you browse on this site, cookies collect data to enhance your experience and personalize the content and advertising you see.
Visit our Privacy Policy to learn more. By continuing to use the site, you agree to this use of cookies and data.
  • In Portugal
  • List of Countries
  • For 7 days
  • Water Temperature
  • Weather Map
  • Weather Widgets
  • user-avatar
    Login

    Hourly Weather Novoasbest

    Today, 29 May, Friday

    Time Temperature Precipitation Wind Pressure Humidity
    00:00 +10°C° 0 mm 2 mps 739 mmHg 83%
    01:00 +9°C° 0 mm 2 mps 739 mmHg 85%
    02:00 +9°C° 0 mm 2 mps 739 mmHg 85%
    03:00 +9°C° 0 mm 2 mps 740 mmHg 85%
    04:00 +10°C° 0 mm 3 mps 740 mmHg 85%
    05:00 +11°C° 0 mm 3 mps 740 mmHg 77%
    06:00 +13°C° 0 mm 3 mps 740 mmHg 69%
    07:00 +16°C° 0 mm 3 mps 740 mmHg 62%
    08:00 +17°C° 0 mm 4 mps 740 mmHg 56%
    09:00 +18°C° 0 mm 4 mps 740 mmHg 51%
    10:00 +20°C° 0 mm 4 mps 740 mmHg 45%
    11:00 +20°C° 0 mm 4 mps 740 mmHg 44%
    12:00 +20°C° 0 mm 4 mps 740 mmHg 43%
    13:00 +21°C° 0 mm 4 mps 739 mmHg 42%
    14:00 +21°C° 0 mm 4 mps 739 mmHg 43%
    15:00 +20°C° 0 mm 4 mps 739 mmHg 44%
    16:00 +20°C° 0 mm 3 mps 739 mmHg 45%
    17:00 +20°C° 0 mm 3 mps 739 mmHg 51%
    18:00 +19°C° 0 mm 2 mps 739 mmHg 56%
    19:00 +18°C° 0 mm 2 mps 739 mmHg 61%
    20:00 +17°C° 0 mm 2 mps 739 mmHg 64%
    21:00 +16°C° 0 mm 2 mps 739 mmHg 68%
    22:00 +14°C° 0 mm 2 mps 739 mmHg 71%
    23:00 +13°C° 0 mm 2 mps 739 mmHg 74%

    Tomorrow, 30 May, Saturday

    Time Temperature Precipitation Wind Pressure Humidity
    00:00 +12°C° 0 mm 2 mps 739 mmHg 77%
    01:00 +11°C° 0 mm 1 mps 739 mmHg 79%
    02:00 +10°C° 0 mm 2 mps 739 mmHg 79%
    03:00 +10°C° 0 mm 2 mps 739 mmHg 79%
    04:00 +10°C° 0 mm 2 mps 739 mmHg 79%
    05:00 +13°C° 0 mm 2 mps 739 mmHg 74%
    06:00 +14°C° 0 mm 3 mps 738 mmHg 69%
    07:00 +17°C° 0 mm 3 mps 738 mmHg 64%
    08:00 +18°C° 0 mm 4 mps 738 mmHg 61%
    09:00 +19°C° 0 mm 4 mps 738 mmHg 59%
    10:00 +20°C° 0 mm 4 mps 738 mmHg 56%
    11:00 +20°C° 0 mm 4 mps 738 mmHg 57%
    12:00 +20°C° 0 mm 4 mps 738 mmHg 59%
    13:00 +20°C° 0 mm 4 mps 738 mmHg 60%
    14:00 +19°C° 0.1 mm 4 mps 737 mmHg 65%
    15:00 +18°C° 0.1 mm 4 mps 737 mmHg 70%
    16:00 +17°C° 0.1 mm 3 mps 737 mmHg 74%
    17:00 +16°C° 0 mm 3 mps 737 mmHg 78%
    18:00 +15°C° 0 mm 2 mps 736 mmHg 82%
    19:00 +14°C° 0 mm 2 mps 736 mmHg 85%
    20:00 +14°C° 0 mm 2 mps 736 mmHg 86%
    21:00 +13°C° 0 mm 2 mps 737 mmHg 86%
    22:00 +13°C° 0 mm 2 mps 737 mmHg 87%
    23:00 +12°C° 0 mm 1 mps 736 mmHg 88%

    Day after tomorrow, 31 May, Sunday

    Time Temperature Precipitation Wind Pressure Humidity
    00:00 +12°C° 0 mm 1 mps 736 mmHg 88%
    01:00 +12°C° 0 mm 1 mps 736 mmHg 89%
    02:00 +11°C° 0 mm 1 mps 736 mmHg 87%
    03:00 +11°C° 0 mm 1 mps 735 mmHg 86%
    04:00 +11°C° 0 mm 1 mps 735 mmHg 84%
    05:00 +10°C° 0 mm 2 mps 735 mmHg 81%
    06:00 +10°C° 0 mm 2 mps 734 mmHg 78%
    07:00 +10°C° 0 mm 3 mps 734 mmHg 75%
    08:00 +9°C° 0.6 mm 3 mps 734 mmHg 79%
    09:00 +9°C° 0.6 mm 3 mps 733 mmHg 83%
    10:00 +7°C° 0.6 mm 4 mps 733 mmHg 87%
    11:00 +7°C° 1.3 mm 4 mps 733 mmHg 89%
    12:00 +7°C° 1.3 mm 3 mps 732 mmHg 91%
    13:00 +7°C° 1.3 mm 3 mps 732 mmHg 93%
    14:00 +7°C° 1.3 mm 3 mps 732 mmHg 94%
    15:00 +7°C° 1.3 mm 3 mps 732 mmHg 94%
    16:00 +7°C° 1.3 mm 2 mps 732 mmHg 95%
    17:00 +7°C° 0.1 mm 2 mps 732 mmHg 94%
    18:00 +7°C° 0.1 mm 2 mps 731 mmHg 93%
    19:00 +7°C° 0.1 mm 3 mps 731 mmHg 93%
    20:00 +7°C° 0 mm 2 mps 731 mmHg 94%
    21:00 +7°C° 0 mm 2 mps 731 mmHg 95%
    22:00 +7°C° 0 mm 1 mps 730 mmHg 96%
    23:00 +7°C° 0.4 mm 1 mps 730 mmHg 96%

    1 June, Monday

    Time Temperature Precipitation Wind Pressure Humidity
    00:00 +7°C° 0.4 mm 1 mps 730 mmHg 97%
    01:00 +7°C° 0.4 mm 1 mps 730 mmHg 97%
    02:00 +7°C° 0.6 mm 1 mps 730 mmHg 97%
    03:00 +6°C° 0.6 mm 2 mps 729 mmHg 97%
    04:00 +6°C° 0.6 mm 2 mps 729 mmHg 97%
    05:00 +7°C° 0.6 mm 2 mps 729 mmHg 95%
    06:00 +7°C° 0.6 mm 2 mps 729 mmHg 93%
    07:00 +8°C° 0.6 mm 2 mps 729 mmHg 91%
    08:00 +9°C° 0.2 mm 2 mps 730 mmHg 83%
    09:00 +10°C° 0.2 mm 3 mps 730 mmHg 76%
    10:00 +11°C° 0.2 mm 3 mps 730 mmHg 68%
    11:00 +11°C° 0.1 mm 3 mps 731 mmHg 66%
    12:00 +13°C° 0.1 mm 2 mps 731 mmHg 63%
    13:00 +13°C° 0.1 mm 2 mps 731 mmHg 61%
    14:00 +13°C° 0.1 mm 2 mps 731 mmHg 60%
    15:00 +14°C° 0.1 mm 1 mps 731 mmHg 59%
    16:00 +14°C° 0.1 mm 1 mps 731 mmHg 58%
    17:00 +13°C° 0.1 mm 1 mps 731 mmHg 64%
    18:00 +12°C° 0.1 mm 1 mps 731 mmHg 71%
    19:00 +12°C° 0.1 mm 1 mps 731 mmHg 78%
    20:00 +11°C° 0.1 mm 1 mps 731 mmHg 82%
    21:00 +9°C° 0.1 mm 1 mps 732 mmHg 86%
    22:00 +8°C° 0.1 mm 1 mps 732 mmHg 91%
    23:00 +8°C° 0 mm 1 mps 732 mmHg 92%

    2 June, Tuesday

    Time Temperature Precipitation Wind Pressure Humidity
    00:00 +7°C° 0 mm 1 mps 732 mmHg 92%
    01:00 +7°C° 0 mm 1 mps 732 mmHg 93%
    02:00 +7°C° 0.1 mm 1 mps 732 mmHg 93%
    03:00 +6°C° 0.1 mm 0 mps 732 mmHg 93%
    04:00 +7°C° 0.1 mm 0 mps 732 mmHg 93%
    05:00 +8°C° 0.3 mm 1 mps 732 mmHg 91%
    06:00 +8°C° 0.3 mm 1 mps 732 mmHg 90%
    07:00 +9°C° 0.3 mm 1 mps 733 mmHg 89%
    08:00 +9°C° 0.5 mm 1 mps 733 mmHg 89%
    09:00 +9°C° 0.5 mm 1 mps 733 mmHg 90%
    10:00 +9°C° 0.5 mm 1 mps 733 mmHg 91%
    11:00 +9°C° 0.3 mm 1 mps 733 mmHg 89%
    12:00 +10°C° 0.3 mm 1 mps 733 mmHg 87%
    13:00 +9°C° 0.3 mm 2 mps 734 mmHg 85%
    14:00 +9°C° 0.4 mm 2 mps 734 mmHg 87%
    15:00 +9°C° 0.4 mm 2 mps 733 mmHg 89%
    16:00 +9°C° 0.4 mm 2 mps 733 mmHg 91%
    17:00 +9°C° 0.2 mm 2 mps 733 mmHg 91%
    18:00 +9°C° 0.2 mm 3 mps 734 mmHg 92%
    19:00 +9°C° 0.2 mm 3 mps 734 mmHg 92%
    20:00 +8°C° 0 mm 2 mps 734 mmHg 93%
    21:00 +7°C° 0 mm 2 mps 733 mmHg 95%
    22:00 +7°C° 0 mm 1 mps 733 mmHg 97%
    23:00 +7°C° 0 mm 1 mps 733 mmHg 97%

    3 June, Wednesday

    Time Temperature Precipitation Wind Pressure Humidity
    00:00 +7°C° 0 mm 1 mps 733 mmHg 97%
    01:00 +7°C° 0 mm 1 mps 733 mmHg 97%
    02:00 +5°C° 0 mm 2 mps 733 mmHg 97%
    03:00 +5°C° 0 mm 2 mps 733 mmHg 96%
    04:00 +5°C° 0 mm 2 mps 733 mmHg 96%
    05:00 +6°C° 0 mm 2 mps 733 mmHg 92%
    06:00 +8°C° 0 mm 2 mps 734 mmHg 89%
    07:00 +9°C° 0 mm 2 mps 734 mmHg 85%
    08:00 +12°C° 0 mm 2 mps 734 mmHg 73%
    09:00 +13°C° 0 mm 2 mps 734 mmHg 62%
    10:00 +15°C° 0 mm 2 mps 734 mmHg 50%
    11:00 +16°C° 0 mm 2 mps 733 mmHg 46%
    12:00 +18°C° 0 mm 1 mps 733 mmHg 42%
    13:00 +19°C° 0 mm 1 mps 733 mmHg 38%
    14:00 +19°C° 0 mm 1 mps 733 mmHg 37%
    15:00 +19°C° 0 mm 1 mps 733 mmHg 37%
    16:00 +19°C° 0 mm 1 mps 733 mmHg 36%
    17:00 +18°C° 0.1 mm 1 mps 733 mmHg 48%
    18:00 +15°C° 0.1 mm 2 mps 733 mmHg 60%
    19:00 +13°C° 0.1 mm 2 mps 733 mmHg 71%
    20:00 +12°C° 0 mm 2 mps 733 mmHg 74%
    21:00 +11°C° 0 mm 1 mps 733 mmHg 77%
    22:00 +10°C° 0 mm 1 mps 733 mmHg 79%
    23:00 +9°C° 0 mm 1 mps 733 mmHg 83%
    Show more